EN

Hourly Weather Brzezinki

Today, 16 April, Friday

Time Temperature Precipitation Wind Pressure Humidity
00:00 +1°C° 0 mm 4 mps 761 mmHg 86%
01:00 +1°C° 0 mm 4 mps 761 mmHg 85%
02:00 +1°C° 0 mm 4 mps 761 mmHg 86%
03:00 +2°C° 0 mm 3 mps 761 mmHg 87%
04:00 +2°C° 0 mm 3 mps 761 mmHg 89%
05:00 +2°C° 0.1 mm 3 mps 761 mmHg 87%
06:00 +2°C° 0.1 mm 3 mps 761 mmHg 85%
07:00 +3°C° 0.1 mm 3 mps 761 mmHg 83%
08:00 +4°C° 0 mm 4 mps 761 mmHg 75%
09:00 +6°C° 0 mm 4 mps 761 mmHg 67%
10:00 +7°C° 0 mm 4 mps 760 mmHg 58%
11:00 +8°C° 0 mm 4 mps 760 mmHg 58%
12:00 +8°C° 0 mm 5 mps 760 mmHg 57%
13:00 +8°C° 0 mm 5 mps 760 mmHg 56%
14:00 +7°C° 0 mm 5 mps 760 mmHg 63%
15:00 +6°C° 0 mm 5 mps 760 mmHg 71%
16:00 +5°C° 0 mm 4 mps 760 mmHg 78%
17:00 +5°C° 0 mm 4 mps 760 mmHg 80%
18:00 +4°C° 0 mm 4 mps 760 mmHg 82%
19:00 +4°C° 0 mm 4 mps 760 mmHg 84%
20:00 +4°C° 0.3 mm 4 mps 760 mmHg 87%
21:00 +3°C° 0.3 mm 3 mps 760 mmHg 90%
22:00 +3°C° 0.3 mm 3 mps 760 mmHg 93%
23:00 +3°C° 0.2 mm 3 mps 760 mmHg 93%

Tomorrow, 17 April, Saturday

Time Temperature Precipitation Wind Pressure Humidity
00:00 +3°C° 0.2 mm 3 mps 760 mmHg 94%
01:00 +4°C° 0.2 mm 2 mps 759 mmHg 95%
02:00 +4°C° 0 mm 2 mps 759 mmHg 95%
03:00 +4°C° 0 mm 2 mps 759 mmHg 95%
04:00 +4°C° 0 mm 2 mps 759 mmHg 96%
05:00 +5°C° 0 mm 2 mps 760 mmHg 95%
06:00 +5°C° 0 mm 2 mps 760 mmHg 94%
07:00 +6°C° 0 mm 2 mps 760 mmHg 93%
08:00 +6°C° 0 mm 2 mps 760 mmHg 91%
09:00 +7°C° 0 mm 2 mps 760 mmHg 89%
10:00 +8°C° 0 mm 3 mps 760 mmHg 87%
11:00 +9°C° 0.1 mm 3 mps 760 mmHg 83%
12:00 +10°C° 0.1 mm 3 mps 760 mmHg 78%
13:00 +12°C° 0.1 mm 3 mps 759 mmHg 74%
14:00 +11°C° 0.3 mm 3 mps 759 mmHg 78%
15:00 +10°C° 0.3 mm 3 mps 759 mmHg 82%
16:00 +10°C° 0.3 mm 3 mps 759 mmHg 87%
17:00 +9°C° 0.1 mm 3 mps 760 mmHg 89%
18:00 +8°C° 0.1 mm 2 mps 760 mmHg 92%
19:00 +8°C° 0.1 mm 2 mps 760 mmHg 94%
20:00 +8°C° 0 mm 2 mps 760 mmHg 95%
21:00 +7°C° 0 mm 2 mps 760 mmHg 95%
22:00 +7°C° 0 mm 2 mps 760 mmHg 95%
23:00 +7°C° 0.1 mm 2 mps 760 mmHg 95%

Day after tomorrow, 18 April, Sunday

Time Temperature Precipitation Wind Pressure Humidity
00:00 +7°C° 0.1 mm 2 mps 760 mmHg 96%
01:00 +7°C° 0.1 mm 2 mps 760 mmHg 96%
02:00 +6°C° 0 mm 2 mps 760 mmHg 96%
03:00 +6°C° 0 mm 2 mps 760 mmHg 96%
04:00 +5°C° 0 mm 2 mps 760 mmHg 97%
05:00 +6°C° 0 mm 2 mps 760 mmHg 94%
06:00 +7°C° 0 mm 2 mps 760 mmHg 91%
07:00 +8°C° 0 mm 3 mps 760 mmHg 89%
08:00 +9°C° 0 mm 3 mps 760 mmHg 84%
09:00 +11°C° 0 mm 3 mps 760 mmHg 78%
10:00 +12°C° 0 mm 3 mps 760 mmHg 73%
11:00 +13°C° 0.1 mm 3 mps 760 mmHg 69%
12:00 +14°C° 0.1 mm 3 mps 760 mmHg 64%
13:00 +14°C° 0.1 mm 4 mps 760 mmHg 60%
14:00 +14°C° 0.1 mm 3 mps 760 mmHg 60%
15:00 +14°C° 0.1 mm 3 mps 760 mmHg 60%
16:00 +14°C° 0.1 mm 3 mps 759 mmHg 61%
17:00 +13°C° 0.1 mm 3 mps 759 mmHg 67%
18:00 +13°C° 0.1 mm 2 mps 760 mmHg 74%
19:00 +10°C° 0.1 mm 2 mps 760 mmHg 80%
20:00 +10°C° 0 mm 2 mps 760 mmHg 83%
21:00 +9°C° 0 mm 2 mps 760 mmHg 86%
22:00 +8°C° 0 mm 2 mps 760 mmHg 89%
23:00 +8°C° 0 mm 2 mps 760 mmHg 90%

19 April, Monday

Time Temperature Precipitation Wind Pressure Humidity
00:00 +7°C° 0 mm 2 mps 760 mmHg 91%
01:00 +7°C° 0 mm 2 mps 760 mmHg 92%
02:00 +6°C° 0 mm 2 mps 760 mmHg 92%
03:00 +6°C° 0 mm 2 mps 760 mmHg 91%
04:00 +6°C° 0 mm 2 mps 760 mmHg 91%
05:00 +7°C° 0 mm 2 mps 760 mmHg 87%
06:00 +8°C° 0 mm 2 mps 760 mmHg 82%
07:00 +9°C° 0 mm 3 mps 759 mmHg 78%
08:00 +10°C° 0 mm 3 mps 759 mmHg 74%
09:00 +12°C° 0 mm 3 mps 759 mmHg 70%
10:00 +13°C° 0 mm 3 mps 759 mmHg 65%
11:00 +14°C° 0.2 mm 3 mps 759 mmHg 62%
12:00 +14°C° 0.2 mm 3 mps 758 mmHg 59%
13:00 +16°C° 0.2 mm 3 mps 758 mmHg 55%
14:00 +16°C° 0.2 mm 2 mps 758 mmHg 55%
15:00 +15°C° 0.2 mm 2 mps 757 mmHg 56%
16:00 +15°C° 0.2 mm 2 mps 757 mmHg 56%
17:00 +14°C° 0.2 mm 2 mps 757 mmHg 62%
18:00 +13°C° 0.2 mm 2 mps 757 mmHg 68%
19:00 +10°C° 0.2 mm 2 mps 757 mmHg 73%
20:00 +10°C° 0.1 mm 2 mps 757 mmHg 76%
21:00 +9°C° 0.1 mm 2 mps 757 mmHg 78%
22:00 +9°C° 0.1 mm 2 mps 757 mmHg 81%
23:00 +9°C° 0 mm 1 mps 757 mmHg 82%

20 April, Tuesday

Time Temperature Precipitation Wind Pressure Humidity
00:00 +9°C° 0 mm 1 mps 757 mmHg 83%
01:00 +9°C° 0 mm 1 mps 756 mmHg 84%
02:00 +8°C° 0 mm 1 mps 756 mmHg 84%
03:00 +8°C° 0 mm 1 mps 756 mmHg 85%
04:00 +7°C° 0 mm 1 mps 756 mmHg 85%
05:00 +7°C° 0 mm 2 mps 756 mmHg 81%
06:00 +7°C° 0 mm 2 mps 755 mmHg 77%
07:00 +8°C° 0 mm 2 mps 755 mmHg 73%
08:00 +9°C° 0 mm 2 mps 755 mmHg 66%
09:00 +11°C° 0 mm 3 mps 755 mmHg 59%
10:00 +12°C° 0 mm 3 mps 755 mmHg 52%
11:00 +14°C° 0 mm 2 mps 754 mmHg 51%
12:00 +14°C° 0 mm 2 mps 754 mmHg 50%
13:00 +14°C° 0 mm 2 mps 754 mmHg 49%
14:00 +13°C° 0 mm 3 mps 753 mmHg 50%
15:00 +13°C° 0 mm 3 mps 753 mmHg 51%
16:00 +13°C° 0 mm 3 mps 753 mmHg 52%
17:00 +12°C° 0.1 mm 3 mps 753 mmHg 58%
18:00 +10°C° 0.1 mm 3 mps 753 mmHg 65%
19:00 +9°C° 0.1 mm 3 mps 753 mmHg 71%
20:00 +8°C° 0 mm 3 mps 753 mmHg 76%
21:00 +7°C° 0 mm 3 mps 753 mmHg 81%
22:00 +5°C° 0 mm 3 mps 753 mmHg 85%
23:00 +5°C° 0 mm 2 mps 753 mmHg 88%

21 April, Wednesday

Time Temperature Precipitation Wind Pressure Humidity
00:00 +4°C° 0 mm 2 mps 753 mmHg 90%
01:00 +4°C° 0 mm 2 mps 753 mmHg 93%
02:00 +3°C° 0 mm 2 mps 753 mmHg 93%
03:00 +3°C° 0 mm 2 mps 753 mmHg 93%
04:00 +3°C° 0 mm 2 mps 753 mmHg 93%
05:00 +4°C° 0 mm 2 mps 753 mmHg 88%
06:00 +4°C° 0 mm 3 mps 753 mmHg 84%
07:00 +5°C° 0 mm 3 mps 753 mmHg 79%
08:00 +7°C° 0 mm 4 mps 752 mmHg 71%
09:00 +10°C° 0 mm 4 mps 752 mmHg 64%
10:00 +10°C° 0 mm 5 mps 752 mmHg 56%
11:00 +12°C° 0.1 mm 5 mps 752 mmHg 55%
12:00 +12°C° 0.1 mm 5 mps 752 mmHg 53%
13:00 +12°C° 0.1 mm 5 mps 752 mmHg 52%
14:00 +12°C° 0 mm 4 mps 752 mmHg 52%
15:00 +12°C° 0 mm 4 mps 752 mmHg 52%
16:00 +12°C° 0 mm 4 mps 752 mmHg 52%
17:00 +11°C° 0 mm 3 mps 752 mmHg 58%
18:00 +10°C° 0 mm 3 mps 752 mmHg 64%
19:00 +9°C° 0 mm 3 mps 752 mmHg 70%
20:00 +8°C° 0 mm 3 mps 752 mmHg 74%
21:00 +8°C° 0 mm 2 mps 753 mmHg 78%
22:00 +7°C° 0 mm 2 mps 753 mmHg 82%
23:00 +7°C° 0 mm 3 mps 753 mmHg 78%
Show more

We Need Your Consent

Meteoprog and our Service Providers may store and access personal data such as cookies, device identifiers or other similar technologies on your device and process such data to personalise content and ads, as well as provide social media features and to analyse the traffic.

  • Store and/or access information on your device

    Cookies, device identifiers or other information can be stored or accessed on your device for the purposes indicated above.

  • Personalised ads and content, ad and content measurement, audience insights, and products development

    Ads and content can be personalised based on a profile. More data can be added to better personalise ads and content. Ad and content performance can be measured. Insights about the audience who saw the ads and content can be derived. Such data can be used to develop or improve user’s experience, systems and software.

By clicking ‘I Agree’ you will allow the use of indicated cookies, device identifiers, web beacons or other similar technologies. Your settings can be changed in the browser on your device.

For certain purposes, legitimate interests may be relied on, rather than consent. You can read more about this in our Privacy and Cookie Policy.